[[{"header":{"parameterUnit":"m.s-1","parameterCategory":1,"la1":30.2991,"la2":30.254,"lo1":-89.0895,"lo2":-89.0444,"dy":0.0017,"dx":0.0017,"nx":28,"ny":28,"refTime":"2024-10-05T03:00:00:Z","depth":0,"parameterNumber":2,"parameterNumberName":"U-component_of_WINDS"},"data":[0,0,0,0,0,0,0,0,0,0,0,0,0,0,0,0,0,0,0,0,0,0,0,0,0,0,0,0,0,0,0,0,0,0,0,0,0,0,0,0,0,0,0,0,0,0,0,0,0,0,0,0,0,0,0,0,0,0,-5.8374,-5.8375,0,-5.8439,-5.844,-5.844,-5.8325,-5.8322,-5.8318,-5.8314,-5.838,-5.8386,-5.8391,0,0,0,0,0,0,0,0,0,0,0,0,0,-5.8151,-5.8156,-5.8374,-5.8375,-5.8376,-5.8439,-5.844,-5.8441,-5.8326,-5.8321,-5.8317,-5.8312,-5.8379,-5.8385,-5.8391,0,0,0,0,0,0,0,0,0,0,0,0,0,-5.8235,-5.8157,-5.8374,-5.8326,-5.8323,-5.8439,-5.844,-5.8441,-5.8327,-5.8321,-5.8316,-5.831,-5.8376,-5.8384,-5.8392,-5.8558,0,0,-5.8417,-5.842,0,0,0,0,0,0,0,0,-5.8231,-5.8244,-5.8332,-5.833,-5.8326,-5.8368,-5.8385,-5.848,-5.8329,-5.8325,-5.8314,-5.8307,-5.8381,-5.8388,-5.8413,-5.8561,-5.8564,-5.8417,-5.8422,-5.8426,-5.8428,0,0,0,0,0,0,0,-5.8225,-5.824,-5.84,-5.8334,-5.833,-5.8302,-5.8307,-5.8403,-5.8385,-5.8325,-5.8317,-5.8326,-5.8378,-5.8406,-5.8414,-5.8565,-5.8417,-5.8424,-5.8429,-5.8433,-5.8854,-5.886,0,0,0,0,0,0,-5.8225,-5.8236,-5.8398,-5.8402,-5.8263,-5.831,-5.8317,-5.836,-5.8384,-5.8381,-5.8331,-5.8321,-5.8395,-5.8405,-5.8416,-5.8613,-5.8426,-5.8433,-5.8438,-5.8847,-5.8855,-5.8862,0,0,0,0,0,0,-5.8221,-5.8241,-5.8395,-5.8317,-5.8334,-5.832,-5.8371,-5.8365,-5.8392,-5.8388,-5.8384,-5.8363,-5.8391,-5.8404,-5.8524,-5.8613,-5.8437,-5.8444,-5.884,-5.885,-5.8859,-5.9007,0,0,0,0,0,0,-5.8215,-5.824,-5.8302,-5.8319,-5.8339,-5.8502,-5.8376,-5.837,-5.8407,-5.8393,-5.8417,-5.8415,-5.8387,-5.8513,-5.8532,-5.8621,-5.8451,-5.8832,-5.8844,-5.8856,-5.8994,-5.9021,-5.9043,0,0,0,0,0,-5.8207,-5.8341,-5.8306,-5.8326,-5.8417,-5.8508,-5.8519,-5.8484,-5.8414,-5.8477,-5.8475,-5.8414,-5.86,-5.8526,-5.8547,-5.864,-5.8826,-5.8841,-5.8855,-5.8983,-5.9016,-5.9043,0,0,0,0,0,0,-5.8335,-5.8342,-5.8304,-5.8447,-5.8478,-5.8488,-5.8566,-5.8519,-5.857,-5.8556,-5.8511,-5.8517,-5.8646,-5.8654,-5.8571,-5.8802,-5.8701,-5.8721,-5.8792,-5.8823,-5.8847,-5.8842,-5.8457,0,0,0,0,0,-5.838,-5.8453,-5.8455,-5.8581,-5.8599,-5.8581,-5.8619,-5.859,-5.8619,-5.8632,-5.8638,-5.8669,-5.8735,-5.8779,-5.8839,-5.8995,-5.8999,-5.9069,-5.9094,-5.9114,-5.9131,-5.9216,-5.9248,-5.8909,-5.8909,-5.8909,0,0,-5.8473,-5.8486,-5.8535,-5.8607,-5.8628,-5.8705,-5.8592,-5.8678,-5.8735,-5.8645,-5.8758,-5.8764,-5.8796,-5.8936,-5.8997,-5.8946,-5.9226,-5.9132,-5.9148,-5.9155,-5.9234,-5.9266,-5.9295,-5.8919,-5.8917,-5.8916,0,0,-5.8682,-5.8699,-5.8807,-5.883,-5.8863,-5.885,-5.8876,-5.8894,-5.8895,-5.9008,-5.8943,-5.901,-5.9123,-5.915,-5.9178,-5.94,-5.9347,-5.942,-5.9549,-5.9632,-5.9659,-5.9682,-5.9763,-5.9792,-5.9438,-5.9438,-5.9438,0,-5.8794,-5.8907,-5.8868,-5.896,-5.8994,-5.8916,-5.9026,-5.905,-5.9101,-5.9127,-5.9069,-5.9212,-5.9227,-5.9372,-5.9427,-5.9452,-5.9481,-5.9418,-5.9658,-5.9681,-5.9703,-5.9779,-5.9809,-5.9447,-5.9446,-5.9445,-5.9444,0,-5.9044,-5.9124,-5.9207,-5.9259,-5.9303,-5.9403,-5.9379,-5.9428,-5.9396,-5.9389,-5.9507,-5.9523,-5.9586,-5.9618,-5.9587,-5.976,-5.9728,-5.9665,-5.9563,-5.9744,-5.9816,-5.9844,-5.946,-5.9456,-5.9454,-5.9452,0,0,-5.9335,-5.9365,-5.9396,-5.942,-5.9451,-5.9512,-5.9609,-5.9671,-5.9715,-5.9753,-5.9834,-5.9933,-5.9876,-5.9908,-5.9879,-5.9952,-6.0129,-5.988,-5.988,-5.9927,-6.0322,-6.037,-6.0405,-6.0093,-6.0099,-6.0103,-6.032,0,-5.9544,-5.9712,-5.968,-5.9844,-5.9918,-5.9846,-5.9931,-5.996,-5.9957,-6.0019,-6.0015,-6.0087,-6.0005,-6.0025,-6.0094,-6.0093,-6.0208,-6.0076,-6.0169,-6.0173,-6.0165,-6.0441,-6.0492,-6.0696,-6.0347,-6.0352,-6.0355,0,-5.9811,-5.986,-6.0032,-6.0053,-6.0083,-6.0159,-6.0215,-6.0275,-6.0307,-6.0299,-6.0337,-6.0295,-6.0392,-6.0289,-6.0423,-6.0334,-6.037,-6.0376,-6.0383,-6.0391,-6.0276,-6.0458,-6.076,-6.0791,-6.0399,-6.0395,-6.0392,0,-6.0008,-6.0117,-6.0234,-6.0256,-6.0283,-6.0339,-6.0353,-6.0379,-6.0419,-6.0467,-6.0493,-6.0552,-6.0585,-6.0632,-6.0607,-6.0534,-6.0747,-6.064,-6.0744,-6.0745,-6.0793,-6.079,-6.1106,-6.0814,-6.0814,-6.0813,-6.0813,0,-6.0246,-6.0354,-6.0323,-6.0395,-6.0515,-6.0477,-6.0597,-6.0602,-6.0626,-6.0698,-6.0639,-6.0709,-6.0671,-6.0738,-6.0719,-6.0835,-6.0849,-6.0847,-6.0841,-6.0853,-6.0854,-6.0876,-6.0862,-6.0821,-6.082,-6.0818,-6.0817,0,-6.0486,-6.047,-6.0593,-6.0609,-6.0616,-6.0703,-6.0717,-6.0785,-6.0778,-6.0871,-6.089,-6.0879,-6.0955,-6.0935,-6.1017,-6.1004,-6.115,-6.1126,-6.114,-6.1135,-6.124,-6.1231,-6.1582,-6.1627,-6.1306,-6.1309,-6.1312,0,-6.0639,-6.0721,-6.0747,-6.0791,-6.081,-6.0882,-6.0923,-6.089,-6.0935,-6.0978,-6.1042,-6.1112,-6.1167,-6.1292,-6.1291,-6.1354,-6.1331,-6.145,-6.134,-6.1351,-6.1335,-6.1331,-6.134,-6.1472,-6.1476,-6.1479,-6.1481,0,-6.0914,-6.0902,-6.0963,-6.1023,-6.1074,-6.1119,-6.1159,-6.1199,-6.1168,-6.1222,-6.1299,-6.1342,-6.1427,-6.1498,-6.1557,-6.1571,-6.1523,-6.1516,-6.1544,-6.1557,-6.1563,-6.1563,-6.1201,-6.1508,-6.1505,-6.1503,-6.1502,-6.1501,-6.1116,-6.1186,-6.1216,-6.1287,-6.1313,-6.1352,-6.1417,-6.1419,-6.1483,-6.1549,-6.1526,-6.1615,-6.1646,-6.1719,-6.1741,-6.181,-6.1765,-6.1805,-6.1815,-6.1826,-6.184,-6.1551,-6.1821,-6.182,-6.1819,-6.1818,-6.1818,0,-6.1389,-6.1405,-6.147,-6.1528,-6.1585,-6.1534,-6.1576,-6.1626,-6.1705,-6.1738,-6.1794,-6.1884,-6.1953,-6.1959,-6.2025,-6.2079,-6.2059,-6.2098,-6.2094,-6.2098,-6.1875,-6.1846,-6.2113,-6.2113,-6.2113,-6.2113,-6.2113,-6.2113,-6.1537,-6.1654,-6.1646,-6.1776,-6.179,-6.1877,-6.1906,-6.1942,-6.1968,-6.2071,-6.2129,-6.2132,-6.2155,-6.2222,-6.2284,-6.2284,-6.2311,-6.236,-6.2351,-6.2143,-6.2114,-6.2086,-6.2058,-6.2366,-6.2366,-6.2569,-6.257,-6.2572]},{"header":{"parameterUnit":"m.s-1","parameterCategory":1,"la1":30.2991,"la2":30.254,"lo1":-89.0895,"lo2":-89.0444,"dy":0.0017,"dx":0.0017,"nx":28,"ny":28,"refTime":"2024-10-05T03:00:00:Z","depth":0,"parameterNumber":3,"parameterNumberName":"V-component_of_WINDS"},"data":[0,0,0,0,0,0,0,0,0,0,0,0,0,0,0,0,0,0,0,0,0,0,0,0,0,0,0,0,0,0,0,0,0,0,0,0,0,0,0,0,0,0,0,0,0,0,0,0,0,0,0,0,0,0,0,0,0,0,-0.6039,-0.6039,0,-0.6041,-0.6041,-0.6041,-0.6006,-0.6005,-0.6004,-0.6003,-0.6007,-0.6008,-0.6009,0,0,0,0,0,0,0,0,0,0,0,0,0,-0.6004,-0.6005,-0.6039,-0.6039,-0.6039,-0.6041,-0.6041,-0.6041,-0.6006,-0.6005,-0.6003,-0.6002,-0.6007,-0.6008,-0.6009,0,0,0,0,0,0,0,0,0,0,0,0,0,-0.6014,-0.6005,-0.6039,-0.6021,-0.602,-0.6041,-0.6041,-0.6041,-0.6006,-0.6005,-0.6003,-0.6002,-0.6006,-0.6008,-0.6009,-0.6048,0,0,-0.6014,-0.6015,0,0,0,0,0,0,0,0,-0.6014,-0.6016,-0.6024,-0.6023,-0.6021,-0.6021,-0.603,-0.6043,-0.6006,-0.6011,-0.6003,-0.6001,-0.6013,-0.6014,-0.6018,-0.6048,-0.6048,-0.6014,-0.6015,-0.6016,-0.6016,0,0,0,0,0,0,0,-0.6013,-0.6015,-0.604,-0.6024,-0.6022,-0.6014,-0.6013,-0.6033,-0.602,-0.6011,-0.6008,-0.6009,-0.6012,-0.6016,-0.6018,-0.6048,-0.6014,-0.6015,-0.6016,-0.6017,-0.6109,-0.6111,0,0,0,0,0,0,-0.6015,-0.6015,-0.604,-0.604,-0.6014,-0.6015,-0.6015,-0.6023,-0.602,-0.6018,-0.601,-0.6007,-0.6014,-0.6016,-0.6018,-0.6062,-0.6016,-0.6017,-0.6018,-0.6108,-0.611,-0.6111,0,0,0,0,0,0,-0.6014,-0.6017,-0.6039,-0.6027,-0.6029,-0.6018,-0.6026,-0.6024,-0.6028,-0.602,-0.6017,-0.6017,-0.6013,-0.6015,-0.604,-0.6062,-0.6018,-0.6019,-0.6106,-0.6108,-0.611,-0.6153,0,0,0,0,0,0,-0.6013,-0.6017,-0.6032,-0.6027,-0.603,-0.6062,-0.6028,-0.6025,-0.603,-0.6027,-0.6025,-0.6024,-0.6012,-0.6038,-0.6042,-0.6063,-0.602,-0.6104,-0.6107,-0.611,-0.6149,-0.6156,-0.6162,0,0,0,0,0,-0.6012,-0.6044,-0.6033,-0.6036,-0.6047,-0.6064,-0.6065,-0.6051,-0.6032,-0.6047,-0.6041,-0.6024,-0.6059,-0.6041,-0.6045,-0.6067,-0.6103,-0.6106,-0.611,-0.6147,-0.6155,-0.6162,0,0,0,0,0,0,-0.6053,-0.6043,-0.603,-0.6062,-0.6064,-0.6057,-0.6076,-0.606,-0.6068,-0.6064,-0.6047,-0.6047,-0.6075,-0.6073,-0.6053,-0.6104,-0.6077,-0.6082,-0.6104,-0.6112,-0.6118,-0.6119,-0.6022,0,0,0,0,0,-0.6065,-0.6078,-0.6069,-0.6098,-0.6099,-0.6087,-0.6094,-0.6082,-0.6084,-0.6085,-0.6081,-0.6084,-0.6095,-0.6103,-0.6113,-0.6148,-0.6148,-0.6165,-0.6172,-0.6177,-0.6182,-0.62,-0.6208,-0.6123,-0.6123,-0.6123,0,0,-0.6091,-0.6088,-0.6097,-0.6106,-0.6106,-0.6121,-0.6088,-0.6105,-0.6116,-0.6088,-0.6111,-0.6108,-0.6109,-0.6139,-0.6153,-0.6139,-0.6204,-0.6181,-0.6186,-0.6187,-0.6204,-0.6212,-0.622,-0.6125,-0.6125,-0.6124,0,0,-0.6147,-0.6145,-0.6168,-0.6169,-0.6169,-0.616,-0.6166,-0.6161,-0.6158,-0.6181,-0.616,-0.6172,-0.6192,-0.6194,-0.6198,-0.6252,-0.6236,-0.6255,-0.6289,-0.6307,-0.6314,-0.632,-0.634,-0.6347,-0.6259,-0.626,-0.626,0,-0.618,-0.62,-0.6183,-0.6201,-0.6205,-0.6178,-0.6202,-0.6203,-0.6207,-0.6211,-0.6195,-0.622,-0.6219,-0.6249,-0.6262,-0.6265,-0.6271,-0.6256,-0.6314,-0.632,-0.6325,-0.6344,-0.6352,-0.6262,-0.6262,-0.6261,-0.6261,0,-0.6241,-0.6256,-0.6275,-0.6278,-0.6284,-0.6305,-0.6291,-0.6299,-0.6287,-0.628,-0.6303,-0.63,-0.6309,-0.6315,-0.6304,-0.6344,-0.6335,-0.6317,-0.6291,-0.6336,-0.6354,-0.6361,-0.6266,-0.6265,-0.6264,-0.6263,0,0,-0.6325,-0.6316,-0.6324,-0.6324,-0.6321,-0.6333,-0.6352,-0.636,-0.6368,-0.637,-0.6386,-0.6403,-0.6386,-0.639,-0.6378,-0.6394,-0.6437,-0.6374,-0.6373,-0.6387,-0.6482,-0.6496,-0.6505,-0.6426,-0.6427,-0.6428,-0.6482,0,-0.6379,-0.6412,-0.6395,-0.643,-0.6443,-0.6417,-0.6434,-0.6434,-0.6427,-0.6438,-0.643,-0.6443,-0.6419,-0.6421,-0.6435,-0.6429,-0.6456,-0.6425,-0.6442,-0.6442,-0.6444,-0.6514,-0.653,-0.6581,-0.6488,-0.6489,-0.649,0,-0.6448,-0.6453,-0.6489,-0.6482,-0.6487,-0.6502,-0.6508,-0.6518,-0.6517,-0.6511,-0.6515,-0.6499,-0.6517,-0.6489,-0.6515,-0.6494,-0.6499,-0.6497,-0.6498,-0.6501,-0.6471,-0.652,-0.6597,-0.6605,-0.6501,-0.65,-0.6499,0,-0.6507,-0.6522,-0.6545,-0.6546,-0.6539,-0.6551,-0.6548,-0.6546,-0.6551,-0.6556,-0.6559,-0.6566,-0.657,-0.6576,-0.6563,-0.6543,-0.659,-0.6561,-0.6587,-0.6587,-0.6599,-0.6599,-0.668,-0.66,-0.66,-0.66,-0.66,0,-0.6571,-0.6594,-0.6571,-0.6586,-0.661,-0.6591,-0.6616,-0.6611,-0.6609,-0.6622,-0.6599,-0.6612,-0.6592,-0.6603,-0.6592,-0.6616,-0.6617,-0.6614,-0.6611,-0.6617,-0.6617,-0.6622,-0.6618,-0.6602,-0.6602,-0.6601,-0.6601,0,-0.6642,-0.6627,-0.6651,-0.6641,-0.6639,-0.6658,-0.665,-0.6663,-0.6654,-0.6671,-0.6674,-0.666,-0.6672,-0.6658,-0.6668,-0.6661,-0.6693,-0.6684,-0.6693,-0.6691,-0.6718,-0.6716,-0.6805,-0.6816,-0.6729,-0.673,-0.673,0,-0.6684,-0.6701,-0.6693,-0.67,-0.6698,-0.6709,-0.6714,-0.6695,-0.6701,-0.6701,-0.6714,-0.6723,-0.673,-0.675,-0.6741,-0.6749,-0.6741,-0.6771,-0.6742,-0.6747,-0.6743,-0.6743,-0.6745,-0.6778,-0.6779,-0.678,-0.6781,0,-0.6762,-0.6753,-0.6761,-0.6766,-0.6772,-0.6775,-0.6777,-0.6784,-0.6763,-0.6772,-0.6783,-0.6788,-0.6797,-0.6807,-0.6812,-0.681,-0.6793,-0.679,-0.6796,-0.6804,-0.6809,-0.6807,-0.6711,-0.6788,-0.6788,-0.6787,-0.6787,-0.6786,-0.6821,-0.6834,-0.683,-0.6839,-0.6838,-0.684,-0.6851,-0.6843,-0.6851,-0.6858,-0.6845,-0.686,-0.6857,-0.6862,-0.6862,-0.6873,-0.686,-0.6869,-0.6872,-0.6875,-0.6879,-0.6805,-0.6873,-0.6873,-0.6873,-0.6873,-0.6872,0,-0.6898,-0.6893,-0.6902,-0.6904,-0.6911,-0.6892,-0.6892,-0.69,-0.6912,-0.6911,-0.6917,-0.693,-0.6939,-0.693,-0.6937,-0.6947,-0.6939,-0.695,-0.695,-0.695,-0.689,-0.6884,-0.6956,-0.6956,-0.6956,-0.6956,-0.6956,-0.6956,-0.6939,-0.6961,-0.6952,-0.6973,-0.6968,-0.6981,-0.6983,-0.6985,-0.6983,-0.6998,-0.7005,-0.6998,-0.6994,-0.7,-0.7008,-0.7005,-0.7009,-0.7023,-0.7018,-0.6962,-0.6954,-0.6946,-0.6941,-0.7024,-0.7024,-0.7077,-0.7077,-0.7078]}]]